This is the latest recevied weather packets stored in our database for station/object KE8ZLU. If no packets are shown the sender has not sent any weather packets the latest 10 day(s).
| Time | Temp. | Humidity | Pressure | Rain* | Wind** | Luminosity | Snow |
|---|---|---|---|---|---|---|---|
| 1777250067 | 13.89° C | 64% | 1020.8 hPa | 0 mm | - | 2 W/m² | - |
| 1777249765 | 13.89° C | 64% | 1020.7 hPa | 0 mm | - | 4 W/m² | - |
| 1777249460 | 14.44° C | 64% | 1020.7 hPa | 0 mm | - | 7 W/m² | - |
| 1777249158 | 14.44° C | 65% | 1020.5 hPa | 0 mm | - | 10 W/m² | - |
| 1777248854 | 15° C | 64% | 1020.6 hPa | 0 mm | - | 13 W/m² | - |
| 1777248551 | 15° C | 65% | 1020.6 hPa | 0 mm | - | 17 W/m² | - |
| 1777248248 | 15° C | 64% | 1020.5 hPa | 0 mm | - | 21 W/m² | - |
| 1777247948 | 15.56° C | 64% | 1020.4 hPa | 0 mm | - | 23 W/m² | - |
| 1777247642 | 15.56° C | 64% | 1020.5 hPa | 0 mm | - | 28 W/m² | - |
| 1777247341 | 15.56° C | 63% | 1020.6 hPa | 0 mm | - | 32 W/m² | - |
| 1777247039 | 15.56° C | 61% | 1020.6 hPa | 0 mm | - | 34 W/m² | - |
| 1777246735 | 15.56° C | 60% | 1020.5 hPa | 0 mm | - | 44 W/m² | - |
| 1777246431 | 15.56° C | 60% | 1020.5 hPa | 0 mm | - | 46 W/m² | - |
| 1777246128 | 16.11° C | 59% | 1020.4 hPa | 0 mm | - | 55 W/m² | - |
| 1777245826 | 16.11° C | 59% | 1020.6 hPa | 0 mm | - | 67 W/m² | - |
| 1777245524 | 16.11° C | 57% | 1020.4 hPa | 0 mm | - | 77 W/m² | - |
| 1777245219 | 16.11° C | 55% | 1020.6 hPa | 0 mm | - | 90 W/m² | - |
| 1777244916 | 16.11° C | 57% | 1020.7 hPa | 0 mm | - | 100 W/m² | - |
| 1777244611 | 16.67° C | 56% | 1020.6 hPa | 0 mm | - | 110 W/m² | - |
| 1777244307 | 16.67° C | 54% | 1020.7 hPa | 0 mm | - | 101 W/m² | - |
| 1777244005 | 16.67° C | 56% | 1020.5 hPa | 0 mm | - | 123 W/m² | - |
| 1777243702 | 16.67° C | 54% | 1020.4 hPa | 0 mm | - | 127 W/m² | - |
| 1777243400 | 16.67° C | 52% | 1020.6 hPa | 0 mm | - | 150 W/m² | - |
| 1777243095 | 17.22° C | 56% | 1020.6 hPa | 0 mm | - | 161 W/m² | - |
| 1777242792 | 17.22° C | 54% | 1020.7 hPa | 0 mm | - | 170 W/m² | - |
* Rain latest hour (hover to see other rain measurements)
** Current wind speed in m/s (hover to see current wind gust speed)